Location: Village de las Huertas
(35.3014°N, 106.4095°W)
Time: 09:12:01
(UTC+00:00)

Okean 1-7 Rocket - Pass Details

Date: 29 October 2020
Orbit: 615 x 650 km, 82.5° (Epoch: 04 December)

Event Time Altitude Azimuth Distance (km) Brightness Sun altitude
Rises 12:11:44 0° 194° (SSW) 2,950 7.0 -15.4°
Reaches altitude 10° 12:14:00 10° 198° (SSW) 2,042 6.1 -15.0°
Maximum altitude 12:18:29 60° 278° (W) 737 3.6 -14.1°
Drops below altitude 10° 12:22:58 10° 359° (N) 2,040 6.1 -13.2°
Sets 12:25:15 0° 3° (N) 2,948 7.0 -12.7°
